Home   Weather   Kansas City   Past weeks

Flag for USA Past Weather in Kansas City, Missouri, USA — Yesterday and Last 2 Weeks

Now
41 °F

Overcast.


Feels Like: 36 °F
Forecast: 29 / 45 °F
Wind: 7 mph from South

Location: Kansas City Downtown Airport

Current Time: Dec 11, 2016 at 4:10:03 am

Latest Report: Dec 11, 2016 at 2:54 am


Visibility: 10 mi

Pressure: 29.85 "Hg

Humidity: 51%

Dew Point: 24 °F

Location of Kansas CityLocation

Past Weather in Kansas City — Graph

°F

Kansas City Temperature Yesterday

Maximum temperature yesterday: 41 °F (at 11:54 pm)
Minimum temperature yesterday: 27 °F (at 2:54 am)
Average temperature yesterday: 34 °F

High & Low Weather Summary for the Past Weeks

 TemperatureHumidityPressure
High62 °F (Nov 28, 10:54 am)100% (Dec 5, 12:54 am)30.71 "Hg (Dec 5, 12:54 am)
Low16 °F (Dec 8, 7:54 am)34% (Dec 6, 2:54 pm)29.13 "Hg (Nov 28, 12:54 pm)
Average38 °F64%30.07 "Hg
* Reported Nov 26 2:54 am — Dec 11 2:54 am, Kansas City, Weather by CustomWeather, © 2016

Note: Actual official high and low records may vary slightly from our data, if they occured in-between our weather recording intervals... More about our weather records

Advertising

Kansas City Weather History for the Previous 24 Hours

Scroll right to see more
 ConditionsComfort  
Time TempWeatherWind HumidityBarometerVisibility
2:54 am
Sun, Dec 11
41 °FOvercast.7 mph51%29.85 "Hg10 mi
1:54 am40 °FOvercast.6 mph51%29.88 "Hg10 mi
12:54 am41 °FOvercast.7 mph51%29.92 "Hg10 mi
11:54 pm
Sat, Dec 10
41 °FOvercast.7 mph49%29.97 "Hg10 mi
10:54 pm40 °FPassing clouds.7 mph49%30.00 "Hg10 mi
9:54 pm40 °FOvercast.6 mph47%30.03 "Hg10 mi
8:54 pm39 °FOvercast.3 mph48%30.03 "Hg10 mi
7:54 pm39 °FOvercast.7 mph45%30.06 "Hg10 mi
6:54 pm38 °FOvercast.6 mph45%30.09 "Hg10 mi
5:54 pm38 °FOvercast.8 mph45%30.10 "Hg10 mi
4:54 pm38 °FOvercast.9 mph48%30.14 "Hg10 mi
3:54 pm37 °FOvercast.8 mph60%30.18 "Hg10 mi
2:54 pm37 °FOvercast.9 mph60%30.21 "Hg10 mi
1:54 pm37 °FOvercast.9 mph50%30.24 "Hg10 mi
12:54 pm35 °FOvercast.6 mph52%30.30 "Hg10 mi
11:54 am34 °FOvercast.5 mph52%30.35 "Hg10 mi
10:54 am33 °FOvercast.8 mph54%30.40 "Hg10 mi
9:54 am31 °FOvercast.6 mph57%30.44 "Hg10 mi
8:54 am29 °FOvercast.7 mph58%30.45 "Hg10 mi
7:54 am28 °FOvercast.5 mph58%30.45 "Hg10 mi
6:54 am28 °FPassing clouds.5 mph58%30.47 "Hg10 mi
5:54 am28 °FOvercast.6 mph56%30.50 "Hg10 mi
4:54 am28 °FPassing clouds.5 mph56%30.50 "Hg10 mi
Weather by CustomWeather, © 2016

See weather overviewHow to use our weather pages